Location: Skalnate Pleso
(49.1889°N, 20.2450°E)
Time: 03:03:24
(UTC+02:00)

Cosmos 1605 Rocket - Pass Details

Date: 27 February 2020
Orbit: 944 x 1007 km, 82.9° (Epoch: 01 April)

Event Time Altitude Azimuth Distance (km) Brightness Sun altitude
Rises 17:36:34 0° 232° (SW) 3,720 8.2 -3.8°
Reaches altitude 10° 17:39:43 10° 247° (WSW) 2,768 8.0 -4.4°
Maximum altitude 17:44:34 22° 297° (WNW) 2,003 6.5 -5.1°
Drops below altitude 10° 17:49:24 10° 347° (NNW) 2,752 6.5 -5.9°
Sets 17:52:33 0° 2° (N) 3,694 6.9 -6.4°
